This is the latest recevied weather packets stored in our database for station/object G4KVI. If no packets are shown the sender has not sent any weather packets the latest 10 day(s).
| Time | Temp. | Humidity | Pressure | Rain* | Wind** | Luminosity | Snow |
|---|---|---|---|---|---|---|---|
| 1788107704 | 18.89° C | 77% | 1008.2 hPa | 0.25 mm | - | 76 W/m² | - |
| 1788107404 | 18.89° C | 77% | 1008.3 hPa | 0.25 mm | - | 148 W/m² | - |
| 1788107104 | 18.33° C | 77% | 1008.1 hPa | 0.25 mm | - | 131 W/m² | - |
| 1788106804 | 18.33° C | 77% | 1008 hPa | 0.25 mm | - | 126 W/m² | - |
| 1788106504 | 18.33° C | 78% | 1008 hPa | 0.25 mm | - | 111 W/m² | - |
| 1788106204 | 18.33° C | 77% | 1007.9 hPa | 0.25 mm | - | 112 W/m² | - |
| 1788105904 | 18.33° C | 79% | 1008 hPa | 0.25 mm | - | 137 W/m² | - |
| 1788105604 | 18.33° C | 78% | 1007.9 hPa | 0.25 mm | - | 134 W/m² | - |
| 1788105304 | 18.33° C | 78% | 1007.8 hPa | 0.25 mm | - | 111 W/m² | - |
| 1788105004 | 17.78° C | 79% | 1008.1 hPa | 0.25 mm | - | 88 W/m² | - |
| 1788104704 | 17.78° C | 80% | 1008.1 hPa | 0.25 mm | - | 96 W/m² | - |
| 1788104404 | 18.33° C | 79% | 1008.1 hPa | 0.25 mm | - | 80 W/m² | - |
| 1788104104 | 18.33° C | 76% | 1008.1 hPa | 0 mm | - | 75 W/m² | - |
| 1788103804 | 18.89° C | 73% | 1007.6 hPa | 0 mm | - | 73 W/m² | - |
| 1788103504 | 18.89° C | 71% | 1008.4 hPa | 0 mm | - | 54 W/m² | - |
| 1788103204 | 19.44° C | 70% | 1008.3 hPa | 0 mm | - | 70 W/m² | - |
| 1788102904 | 19.44° C | 70% | 1008.5 hPa | 0 mm | - | 100 W/m² | - |
| 1788102604 | 19.44° C | 70% | 1008.7 hPa | 0 mm | - | 107 W/m² | - |
| 1788102304 | 19.44° C | 70% | 1008.9 hPa | 0 mm | - | 125 W/m² | - |
| 1788102004 | 20° C | 70% | 1009 hPa | 0 mm | - | 164 W/m² | - |
| 1788101704 | 20° C | 69% | 1008.8 hPa | 0 mm | - | 174 W/m² | - |
| 1788101404 | 20° C | 68% | 1009.1 hPa | 0 mm | - | 179 W/m² | - |
| 1788101104 | 20° C | 67% | 1009.3 hPa | 0 mm | - | 163 W/m² | - |
| 1788100804 | 20° C | 67% | 1009.2 hPa | 0 mm | - | 202 W/m² | - |
| 1788100504 | 20° C | 66% | 1009.4 hPa | 0 mm | - | 212 W/m² | - |
* Rain latest hour (hover to see other rain measurements)
** Current wind speed in m/s (hover to see current wind gust speed)